Location: Hutchins
(43.0916°N, 93.8811°W)
Time: 09:58:04
(UTC+00:00)

BlueWalker 3 - Visible Passes

Search period start: 05 October 2024 00:00
Search period end: 15 October 2024 00:00
Orbit: 473 x 485 km, 53.2° (Epoch: 04 October)

Date Brightness Start Highest point End Pass type
(mag) Time Alt. Az. Time Alt. Az. Time Alt. Az.
05 Oct 4.5 09:43:16 15° ESE 09:43:16 15° ESE 09:44:57 10° E visible
05 Oct 1.8 11:17:30 16° WSW 11:20:22 77° NW 11:24:04 10° NE visible
06 Oct 1.7 10:50:53 38° WSW 10:52:12 86° NW 10:55:55 10° NE visible
07 Oct 1.8 10:24:09 81° E 10:24:09 81° E 10:27:42 10° NE visible
08 Oct 3.5 09:57:16 33° ENE 09:57:16 33° ENE 09:59:27 10° ENE visible
08 Oct 3.2 11:31:28 13° WNW 11:34:03 25° NNW 11:37:11 10° NE visible
09 Oct 4.7 09:30:17 16° ENE 09:30:17 16° ENE 09:31:09 10° ENE visible
09 Oct 3.2 11:04:29 22° NW 11:05:42 27° NNW 11:08:55 10° NE visible
10 Oct 3.1 10:37:24 28° NNW 10:37:24 28° NNW 10:40:36 10° NE visible
11 Oct 3.7 10:10:14 24° NNE 10:10:14 24° NNE 10:12:14 10° NE visible
11 Oct 3.9 11:45:16 10° NW 11:47:46 17° N 11:50:16 10° NE visible
12 Oct 4.6 09:43:00 15° NE 09:43:00 15° NE 09:43:51 10° NE visible
12 Oct 3.9 11:17:11 12° NW 11:19:17 17° N 11:21:48 10° NE visible
13 Oct 3.9 10:49:53 16° NNW 10:50:44 17° N 10:53:18 10° NE visible
14 Oct 4.0 10:22:33 17° N 10:22:33 17° N 10:24:45 10° NE visible
14 Oct 3.8 11:58:17 10° NW 12:01:10 21° NNE 12:04:03 10° ENE visible
